Weather History for KRKR - December, 2012

Change the Weather History Date:

Friday, December 21, 2012

  Actual Average (KFSM) Record (KFSM)
Temperature  
Mean Temperature 44 °F 40 °F  
Max Temperature 60 °F 50 °F 76 °F (1889)
Min Temperature 28 °F 30 °F 4 °F (1989)
Degree Days  
Heating Degree Days 21 25  
Month to date heating degree days 479  
Since 1 July heating degree days 1044  
Moisture  
Dew Point 23 °F    
Average Humidity 54    
Maximum Humidity 93    
Minimum Humidity 20    
Precipitation  
Precipitation 0.00 in 0.10 in 2.37 in (1968)
Month to date precipitation 2.35  
Year to date precipitation 44.52  
Sea Level Pressure  
Sea Level Pressure 30.34 in    
Wind  
Wind Speed 4 mph (SSW)    
Max Wind Speed 10 mph    
Max Gust Speed 18 mph    
Visibility 10 miles    
Events      
T = Trace of Precipitation, MM = Missing Value Source: NWS Daily Summary

Daily Weather History Graph

Daily Weather History Graph

Search for Another Location

Airport or City:

Trip Planner

Search our weather history database for the weather conditions in past years. The results will help you decide how hot, cold, wet, or windy it might be!

Date:

Astronomy

Dec. 21, 2012 Rise Set
Actual Time 7:22 AM CST 5:10 PM CST
Civil Twilight 6:54 AM CST 5:39 PM CST
Nautical Twilight 6:22 AM CST 6:10 PM CST
Astronomical Twilight 5:52 AM CST 6:41 PM CST
Moon 12:49 PM CST (12/21) 1:20 AM CST (12/21)
Length of Visible Light 10h 44m
Length of Day
9h 48m
Waxing Gibbous, 65% of the Moon is Illuminated
Dec 21
Waxing Gibbous
Dec 28
Full
Jan 4
Last Quarter
Jan 11
New
Jan 18
First Quarter

Hourly Weather History & Observations

Time (CST) Temp. Windchill Dew Point Humidity Pressure Visibility Wind Dir Wind Speed Gust Speed Precip Events Conditions
12:15 AM 35.6 °F 30.7 °F 17.6 °F 48% 30.36 in 10.0 mi SW 5.8 mph - N/A   Clear
12:35 AM 35.6 °F 29.9 °F 17.6 °F 48% 30.36 in 10.0 mi SW 6.9 mph - N/A   Clear
12:55 AM 37.4 °F 30.8 °F 17.6 °F 45% 30.36 in 10.0 mi SW 9.2 mph - N/A   Clear
1:15 AM 37.4 °F 31.4 °F 17.6 °F 45% 30.36 in 10.0 mi WSW 8.1 mph 18.4 mph N/A   Clear
1:35 AM 37.4 °F 30.3 °F 17.6 °F 45% 30.37 in 10.0 mi West 10.4 mph - N/A   Clear
1:55 AM 37.4 °F 32.1 °F 15.8 °F 41% 30.37 in 10.0 mi West 6.9 mph - N/A   Clear
2:15 AM 37.4 °F 32.1 °F 15.8 °F 41% 30.36 in 10.0 mi West 6.9 mph - N/A   Clear
2:35 AM 37.4 °F 32.8 °F 17.6 °F 45% 30.37 in 10.0 mi WSW 5.8 mph - N/A   Clear
2:55 AM 35.6 °F 30.7 °F 15.8 °F 44% 30.37 in 10.0 mi WSW 5.8 mph - N/A   Clear
3:15 AM 35.6 °F 29.9 °F 17.6 °F 48% 30.37 in 10.0 mi SW 6.9 mph - N/A   Clear
3:35 AM 35.6 °F 32.8 °F 17.6 °F 48% 30.37 in 10.0 mi SW 3.5 mph - N/A   Clear
3:55 AM 33.8 °F - 19.4 °F 56% 30.37 in 10.0 mi Calm Calm - N/A   Clear
4:15 AM 32.0 °F - 21.2 °F 64% 30.37 in 10.0 mi Calm Calm - N/A   Clear
4:35 AM 32.0 °F - 21.2 °F 64% 30.37 in 10.0 mi Calm Calm - N/A   Clear
4:55 AM 32.0 °F - 21.2 °F 64% 30.36 in 10.0 mi Calm Calm - N/A   Clear
5:15 AM 30.2 °F 26.7 °F 21.2 °F 69% 30.37 in 10.0 mi ENE 3.5 mph - N/A   Clear
5:35 AM 32.0 °F 28.7 °F 21.2 °F 64% 30.38 in 10.0 mi NNE 3.5 mph - N/A   Clear
5:55 AM 32.0 °F - 19.4 °F 60% 30.38 in 10.0 mi Calm Calm - N/A   Clear
6:15 AM 30.2 °F - 21.2 °F 69% 30.39 in 10.0 mi Calm Calm - N/A   Clear
6:35 AM 30.2 °F - 21.2 °F 69% 30.39 in 10.0 mi Calm Calm - N/A   Clear
6:55 AM 28.4 °F - 21.2 °F 74% 30.39 in 10.0 mi Calm Calm - N/A   Clear
7:15 AM 28.4 °F - 21.2 °F 74% 30.39 in 10.0 mi Calm Calm - N/A   Clear
7:35 AM 32.0 °F 25.6 °F 19.4 °F 60% 30.40 in 10.0 mi SSW 6.9 mph - N/A   Clear
7:55 AM 32.0 °F 27.5 °F 19.4 °F 60% 30.40 in 10.0 mi South 4.6 mph - N/A   Clear
8:15 AM 32.0 °F - 21.2 °F 64% 30.41 in 10.0 mi Calm Calm - N/A   Clear
8:35 AM 32.0 °F 27.5 °F 21.2 °F 64% 30.41 in 10.0 mi SSW 4.6 mph - N/A   Clear
8:55 AM 33.8 °F 29.6 °F 21.2 °F 60% 30.42 in 10.0 mi SSW 4.6 mph - N/A   Clear
9:15 AM 35.6 °F - 21.2 °F 56% 30.43 in 10.0 mi Calm Calm - N/A   Scattered Clouds
9:35 AM 37.4 °F 34.9 °F 23.0 °F 56% 30.43 in 10.0 mi South 3.5 mph - N/A   Clear
9:55 AM 37.4 °F 34.9 °F 23.0 °F 56% 30.44 in 10.0 mi South 3.5 mph - N/A   Clear
10:15 AM 41.0 °F 37.1 °F 23.0 °F 49% 30.44 in 10.0 mi South 5.8 mph - N/A   Clear
10:35 AM 42.8 °F 41.1 °F 23.0 °F 46% 30.43 in 10.0 mi SSW 3.5 mph - N/A   Clear
10:55 AM 44.6 °F 42.2 °F 23.0 °F 43% 30.42 in 10.0 mi South 4.6 mph - N/A   Clear
11:15 AM 46.4 °F - 23.0 °F 40% 30.41 in 10.0 mi Calm Calm - N/A   Clear
11:35 AM 50.0 °F - 23.0 °F 35% 30.40 in 10.0 mi SW 3.5 mph - N/A   Clear
11:55 AM 51.8 °F - 21.2 °F 30% 30.39 in 10.0 mi SSW 5.8 mph - N/A   Clear
12:15 PM 51.8 °F - 21.2 °F 30% 30.37 in 10.0 mi SW 3.5 mph - N/A   Clear
12:35 PM 53.6 °F - 19.4 °F 26% 30.36 in 10.0 mi WSW 3.5 mph - N/A   Clear
12:55 PM 55.4 °F - 19.4 °F 25% 30.35 in 10.0 mi SSW 5.8 mph - N/A   Clear
1:15 PM 55.4 °F - 19.4 °F 25% 30.34 in 10.0 mi SSW 5.8 mph - N/A   Clear
1:35 PM 59.0 °F - 21.2 °F 23% 30.33 in 10.0 mi SSW 5.8 mph - N/A   Clear
1:55 PM 59.0 °F - 19.4 °F 22% 30.31 in 10.0 mi South 6.9 mph - N/A   Clear
2:15 PM 59.0 °F - 19.4 °F 22% 30.31 in 10.0 mi SSW 5.8 mph - N/A   Clear
2:35 PM 59.0 °F - 19.4 °F 22% 30.30 in 10.0 mi SSW 6.9 mph - N/A   Clear
2:55 PM 60.8 °F - 19.4 °F 20% 30.29 in 10.0 mi SW 6.9 mph - N/A   Clear
3:15 PM 60.8 °F - 19.4 °F 20% 30.29 in 10.0 mi South 8.1 mph - N/A   Clear
3:35 PM 60.8 °F - 21.2 °F 22% 30.28 in 10.0 mi South 6.9 mph - N/A   Clear
3:55 PM 60.8 °F - 21.2 °F 22% 30.27 in 10.0 mi South 4.6 mph - N/A   Clear
4:15 PM 60.8 °F - 21.2 °F 22% 30.27 in 10.0 mi SSW 4.6 mph - N/A   Clear
4:35 PM 59.0 °F - 21.2 °F 23% 30.26 in 10.0 mi South 3.5 mph - N/A   Clear
4:55 PM 59.0 °F - 21.2 °F 23% 30.27 in 10.0 mi Calm Calm - N/A   Clear
5:15 PM 53.6 °F - 24.8 °F 33% 30.26 in 10.0 mi Calm Calm - N/A   Clear
5:35 PM 51.8 °F - 26.6 °F 38% 30.27 in 10.0 mi Calm Calm - N/A   Clear
5:55 PM 46.4 °F - 26.6 °F 46% 30.27 in 10.0 mi Calm Calm - N/A   Clear
6:15 PM 44.6 °F - 30.2 °F 57% 30.28 in 10.0 mi Calm Calm - N/A   Clear
6:35 PM 42.8 °F - 28.4 °F 57% 30.29 in 10.0 mi Calm Calm - N/A   Clear
6:55 PM 41.0 °F - 30.2 °F 65% 30.29 in 10.0 mi Calm Calm - N/A   Clear
7:15 PM 41.0 °F - 30.2 °F 65% 30.30 in 10.0 mi Calm Calm - N/A   Clear
7:35 PM 41.0 °F - 32.0 °F 70% 30.30 in 10.0 mi Calm Calm - N/A   Clear
7:55 PM 37.4 °F - 32.0 °F 81% 30.30 in 10.0 mi Calm Calm - N/A   Clear
8:15 PM 37.4 °F - 32.0 °F 81% 30.30 in 10.0 mi Calm Calm - N/A   Clear
8:35 PM 35.6 °F - 32.0 °F 87% 30.30 in 10.0 mi Calm Calm - N/A   Clear
8:55 PM 35.6 °F - 32.0 °F 87% 30.29 in 10.0 mi Calm Calm - N/A   Clear
9:15 PM 35.6 °F - 32.0 °F 87% 30.29 in 10.0 mi Calm Calm - N/A   Clear
9:35 PM 35.6 °F - 32.0 °F 87% 30.29 in 10.0 mi Calm Calm - N/A   Clear
9:55 PM 35.6 °F - 32.0 °F 87% 30.29 in 10.0 mi Calm Calm - N/A   Clear
10:15 PM 33.8 °F - 30.2 °F 87% 30.30 in 10.0 mi Calm Calm - N/A   Clear
10:35 PM 32.0 °F - 30.2 °F 93% 30.30 in 10.0 mi Calm Calm - N/A   Clear
10:55 PM 32.0 °F - 30.2 °F 93% 30.30 in 10.0 mi Calm Calm - N/A   Clear
11:15 PM 33.8 °F - 30.2 °F 87% 30.30 in 10.0 mi Calm Calm - N/A   Clear
11:35 PM 32.0 °F - 30.2 °F 93% 30.30 in 10.0 mi Calm Calm - N/A   Clear
11:55 PM 32.0 °F - 30.2 °F 93% 30.30 in 10.0 mi Calm Calm - N/A   Clear